Hourly Weather Roundup
Issued by NWS Central Illinois

Home | Current Version | Previous Version | Text Only | Print | Product List | Glossary On
Versions: 1 2 3 4 5 6 7 8 9 10 11 12 13 14 15 16 17 18 19 20 21 22 23 24 25 26 27 28 29 30 31 32 33 34 35 36 37 38 39 40 41 42 43 44 45 46 47 48 49 50
000
NZUS43 KILX 211410
HWRILX

Area Weather Roundup
National Weather Service Lincoln IL
900 AM CDT THU SEP 21 2017

NOTE:  "FAIR" indicates few or no clouds below 12,000 feet, with
       no sigificant weather and/or obstructions to visibility.


CITY           SKY/WX    TMP DP  RH WIND       PRES   REMARKS
Bloomington    CLOUDY    77  71  82 SW8       30.05R
Champaign      MOSUNNY   80  71  74 SW8       30.06R HX  84
Danville       SUNNY     76  71  85 S6        30.05R
Decatur        CLOUDY    77  71  82 S6        30.05R
Effingham      PTSUNNY   78  73  84 S5        30.08R HX  81
Flora          SUNNY     81  73  76 SW6       30.06S HX  86
Galesburg      LGT RAIN  69  64  83 W6        30.04R
Jacksonville   CLOUDY    75  70  84 SE3       30.03S
Lacon          CLOUDY    74  65  72 S6        30.01R
Lawrenceville  SUNNY     78  73  84 S7        30.08R HX  81
Litchfield     CLOUDY    73  71  93 SE6       30.04S
$$


CITY           SKY/WX    TMP DP  RH WIND       PRES   REMARKS
Lincoln        CLOUDY    75  73  93 S3        30.03S
Macomb         CLOUDY    69  66  89 W3        30.06R
Mattoon        MOSUNNY   78  73  84 S7        30.05R HX  81
Mt Carmel AP   SUNNY     77  72  83 SE5       30.08R
Olney-Noble AP SUNNY     77  75  93 S5        30.08R
Paris AP         N/A     79  73  82 S6        30.08R HX  82
Peoria         CLOUDY    73  67  81 SW3       30.03S
Pontiac        CLOUDY    78  74  86 SW6       30.03R HX  81
Rantoul        MOSUNNY   78  73  85 SW6       30.06R HX  81
Robinson       SUNNY     77  72  85 S3        30.09R
Springfield    CLOUDY    77  72  84 SE3       30.03S
Taylorville    CLOUDY    76  72  85 S3        30.05R
$$

...REGIONAL REPORTS...


CITY           SKY/WX    TMP DP  RH WIND       PRES   REMARKS
Chicago O`Hare PTSUNNY   79  68  69 S5        30.01R HX  81
Kankakee       MOSUNNY   77  71  80 W3        30.05R
Moline         LGT RAIN  72  61  68 SW15G24   30.00R
Mount Sterling CLOUDY    72  66  82 NE3       30.04R
Mount Vernon     N/A     79  73  82 SW6       30.07R HX  82
Pittsfield     CLOUDY    76  72  87 CALM      30.04S
Quincy         CLOUDY    74  66  76 NE10      30.03R
Rockford       CLOUDY    73  69  87 CALM      30.02R
$$


CITY           SKY/WX    TMP DP  RH WIND       PRES   REMARKS
Burlington     CLOUDY    71  64  78 NW3       30.01F
Cedar Rapids   CLOUDY    73  61  65 S13       29.95F
Des Moines     CLOUDY    72  69  90 S7        29.91R
Kirksville     CLOUDY    69  66  90 E15G24    30.04R
Ottumwa        CLOUDY    69  65  86 SE16      30.00R THUNDER
St Louis       PTSUNNY   81  72  74 S6        30.02S HX  85
$$


CITY           SKY/WX    TMP DP  RH WIND       PRES   REMARKS
Terre Haute    SUNNY     75  70  84 S5        30.09R
Evansville     MOSUNNY   74  71  91 NE5       30.09R
Indianapolis   PTSUNNY   76  71  85 S5        30.10R
Lafayette      CLOUDY    76  72  87 S3        30.06R
Madison        CLOUDY    72  70  93 N6        30.01R FOG
Milwaukee      CLOUDY    73  68  84 N6        30.01S
$$






USA.gov is the U.S. government's official web portal to all federal, state and local government web resources and services.